Regional Weather Roundup
Issued by NWS

Home | Current Version | Previous Version | Text Only | Print | Product List | Glossary On
Versions: 1 2 3 4 5 6 7 8 9 10 11 12 13 14 15 16 17 18 19 20 21 22 23 24 25 26 27 28 29 30 31 32 33 34 35 36 37 38 39 40 41 42 43 44 45 46 47 48 49 50
867
ASUS43 KMKX 230300
RWRWI

WISCONSIN REGIONAL WEATHER ROUNDUP
NATIONAL WEATHER SERVICE MILWAUKEE/SULLIVAN WI
1000 PM CDT WED MAR 22 2017

NOTE: "FAIR" INDICATES FEW OR NO CLOUDS BELOW 12,000 FEET WITH NO
SIGNIFICANT WEATHER AND/OR OBSTRUCTIONS TO VISIBILITY.

WIZ001-002-006>008-014>016-023>028-230400-
NORTHWEST WISCONSIN

CITY           SKY/WX    TMP DP  RH WIND       PRES   REMARKS
SUPERIOR ARPT  PTCLDY    31  24  77 E3        30.36S
ASHLAND        CLOUDY    24  20  84 CALM      30.38F
HAYWARD        CLOUDY    33  11  39 SE7       30.35F WCI  27
SIREN          CLOUDY    34   8  33 CALM      30.33F
CUMBERLAND     CLOUDY    32   9  37 SE6       30.33F WCI  26
RICE LAKE      CLOUDY    33  10  38 CALM      30.36F
CHETEK         CLOUDY    32  11  41 CALM      30.36S
LADYSMITH      CLOUDY    31  15  51 E5        30.39R WCI  26
EAU CLAIRE     NOT AVBL
MENOMONIE      MOCLDY    34  16  47 E7        30.35F WCI  28
NEW RICHMOND   CLOUDY    35  11  37 SE8       30.32F WCI  28
OSCEOLA        CLOUDY    36  13  39 SE8       30.35F WCI  29
$$

WIZ003>005-009-010-017-018-230400-
NORTH CENTRAL WISCONSIN

CITY           SKY/WX    TMP DP  RH WIND       PRES   REMARKS
MANITOWISH WTR CLEAR     26   8  45 S7        30.36F WCI  19
ARBOR VITAE    CLEAR     29   8  40 S3        30.37S
WOODRUFF       CLEAR     29   8  40 S3        30.37S
RHINELANDER    CLEAR     27   8  44 SE6       30.39S WCI  20
EAGLE RIVER    CLEAR     27   5  39 S3        30.38S
LAND O LAKES   CLEAR     27   6  41 S5        30.39S WCI  21
PHILLIPS       CLOUDY    27  12  53 SE3       30.36F
TOMAHAWK       CLEAR     25  14  63 CALM      30.39S
MEDFORD        CLEAR     28  11  48 SE6       30.36F WCI  22
MERRILL        CLEAR     29  10  44 S8        30.41S WCI  21
$$

WIZ029-030-035-036-043>047-230400-
CENTRAL WISCONSIN

CITY           SKY/WX    TMP DP  RH WIND       PRES   REMARKS
WAUSAU         CLEAR     28  11  48 SE8       30.39F WCI  20
MOSINEE        CLEAR     27  12  54 E7        30.41F WCI  19
MARSHFIELD     CLEAR     29  13  51 SE10      30.38F WCI  20
STEVENS POINT  CLEAR     26  14  60 SE5       30.44S WCI  20
WAUPACA        CLEAR     28  18  65 E7        30.47R WCI  21
WAUTOMA        CLEAR     28  18  66 E5        30.45S WCI  23
WISC RAPIDS    CLEAR     30  14  51 SE7       30.42F WCI  23
CAMP DOUGLAS   NOT AVBL
$$

WIZ011>013-019>022-031-037>040-048>050-230400-
NORTHEAST WISCONSIN

CITY           SKY/WX    TMP DP  RH WIND       PRES   REMARKS
ANTIGO         CLEAR     26  16  65 S8        30.42S WCI  17
SHAWANO        CLEAR     27  21  76 SE3       30.48S
OCONTO         CLEAR     24  18  78 SE6       30.50S WCI  17
STURGEON BAY   CLEAR     23  17  78 SE3       30.51S
GREEN BAY      CLEAR     27  21  78 SE7       30.49F WCI  19
MANITOWOC      NOT AVBL
APPLETON       MOCLDY    27  18  69 SE10      30.45S WCI  17
CLINTONVILLE   CLEAR     27  19  74 S8        30.47R WCI  18
OSHKOSH        CLEAR     26  19  74 SE8       30.47S WCI  18
$$

WIZ032>034-041-042-053>061-230400-
SOUTHWEST WISCONSIN

CITY           SKY/WX    TMP DP  RH WIND       PRES   REMARKS
LA CROSSE      CLOUDY    38  12  34 SE8       30.38F WCI  32
SPARTA         CLEAR     32  13  44 SE6       30.40F WCI  27
VIROQUA        CLOUDY    32  14  47 SE9       30.36F WCI  24
BOSCOBEL       CLEAR     36  14  40 E5        30.41S WCI  32
PRAIRIE DU CHI CLOUDY    35  14  43 SE6       30.39F WCI  30
PLATTEVILLE    CLEAR     32  20  61 E8        30.39F WCI  25
$$

WIZ056-057-062-063-064-067-068-230400-
SOUTH CENTRAL WISCONSIN

CITY           SKY/WX    TMP DP  RH WIND       PRES   REMARKS
REEDSBURG      CLEAR     30  16  55 E3        30.41F
BARABOO/DELLS  CLEAR     31  18  59 E7        30.42F WCI  24
LONE ROCK      NOT AVBL
MINERAL POINT  CLEAR     34  19  55 E8        30.39F WCI  27
MADISON        CLEAR     30  19  63 SE13      30.44S WCI  20
MIDDLETON      CLEAR     33  21  61 SE10      30.43F WCI  25
WATERTOWN      CLEAR     27  19  72 SE6       30.46S WCI  20
MONROE         CLEAR     30  21  69 E9        30.42S WCI  22
JANESVILLE     CLEAR     30  21  69 SE6       30.46S WCI  24
$$

WIZ051-052-058>065-066-070>072-230400-
SOUTHEAST WISCONSIN

CITY           SKY/WX    TMP DP  RH WIND       PRES   REMARKS
MILWAUKEE      PTCLDY    27  17  66 CALM      30.49F
WAUKESHA       CLEAR     23  18  80 E6        30.48F WCI  16
MILWAUKEE/TIMM CLEAR     27  18  69 CALM      30.50S
RACINE         CLEAR     27  16  63 CALM      30.50F
KENOSHA        CLEAR     24  17  74 E3        30.48F
FOND DU LAC    CLEAR     26  18  71 SE9       30.48R WCI  17
SHEBOYGAN      CLEAR     23  17  78 CALM      30.49F
WEST BEND      CLEAR     23  19  86 CALM      30.48F
JUNEAU         CLEAR     26  19  74 SE9       30.47S WCI  17
$$

LSZ147-162-230400-
LAKE SUPERIOR

STATION/POSITION TIME  TEMP    WIND        PRES    WAVE
                       AIR SEA DIR/SP/G            HT/PER
                 (UTC) (F)     (DEG/KT/KT) (MB)    (FT/S)
DEVILS ISLAND    0200   29     100/ 12/ 13 1030.2F
PORT WING        0240   29     130/  4/ 13 1028.4S
SAXON HARBOR     0240   24     180/  2/  5 1028.4S
$$

LMZ867-665-643>646-230400-
LAKE MICHIGAN

STATION/POSITION TIME  TEMP    WIND        PRES    WAVE
                       AIR SEA DIR/SP/G            HT/PER
                 (UTC) (F)     (DEG/KT/KT) (MB)    (FT/S)
CHAMBERS ISLAND  0240   23     150/  2/  6 1032.5R
NORTHPORT PIER   0240   23      CALM  /  1 1032.8S
SISTER BAY       0106   22        CALM       N/A
KEWAUNEE LAKESHO 0230   27     140/  5/  7 1032.7R
SHEBOYGAN LAKESH 0200   27     130/  4/  5 1033.8S
PORT WASHINGTON  0240   29     150/  4/  6 1033.5S
MILWAUKEE LAKESH 0230   28      80/  4/  5   N/A
KENOSHA   LAKESH 0200   29      80/  2/  5 1032.8
$$

TC  - TEMPERATURE IN CELSIUS
VSB - VISIBILITY IN STATUTE MILES
WCI - WIND CHILL INDEX
HX  - HEAT INDEX





USA.gov is the U.S. government's official web portal to all federal, state and local government web resources and services.